Location: Boleita
(10.4833°N, 66.8167°W)
Time: 03:05:58
(UTC+00:00)

ASTEX 1 - Pass Details

Date: 08 November 2025
Orbit: 711 x 735 km, 92.7° (Epoch: 09 December)

Event Time Altitude Azimuth Distance (km) Brightness Sun altitude
Rises 08:23:10 0° 166° (SSE) 3,154 7.0 -28.6°
Reaches altitude 10° 08:25:29 10° 162° (SSE) 2,230 6.2 -28.1°
Maximum altitude 08:30:21 60° 83° (E) 835 3.8 -26.9°
Enters shadow 08:33:08 25° 11° (N) 1,451 4.9 -26.3°
